This demonstration page uses our WeatherBlox Daily Observations layout. Learn more.

Hourly Observations for July 2, 2018

Temp ( °F °C ) Dew Point ( °F °C ) Humidity (%) Winds ( mph kmh ) Pressure ( in mb ) Visibility ( mi km ) Precip ( " mm )
12:15 am 00:15 Clear 64 17.6 62 16.4 93 93 SSE 5 7 29.97 1015 10 16.0934 0 0
12:35 am 00:35 Clear 63 17.4 61 16.2 93 93 SSE 6 9 29.97 1015 10 16.0934 0 0
12:55 am 00:55 Clear 63 17.1 61 16.1 94 94 SE 5 7 29.97 1015 10 16.0934 0 0
1:15 am 01:15 Clear 62 16.8 61 16 95 95 SSE 5 7 29.97 1015 10 16.0934 0 0
1:35 am 01:35 Clear 63 17 61 16 94 94 SSE 6 9 29.97 1015 10 16.0934 0 0
1:55 am 01:55 Clear 62 16.9 61 16 94 94 SSE 6 9 29.97 1015 10 16.0934 0 0
2:15 am 02:15 Clear 62 16.8 61 16 95 95 SE 5 7 29.97 1015 10 16.0934 0 0
2:35 am 02:35 Clear 62 16.8 61 16 95 95 SE 7 11 29.97 1015 10 16.0934 0 0
2:55 am 02:55 Clear 63 17.1 61 16 93 93 SE 9 15 29.97 1015 10 16.0934 0 0
3:15 am 03:15 Clear 63 17.2 61 16 93 93 SSE 9 15 29.97 1015 10 16.0934 0 0
3:35 am 03:35 Clear 63 17.2 61 16 93 93 SSE 9 15 29.97 1015 10 16.0934 0 0
3:55 am 03:55 Clear 63 17 61 16 94 94 SE 8 13 29.97 1015 10 16.0934 0 0
4:15 am 04:15 Clear 62 16.7 61 15.9 95 95 SE 9 15 29.97 1015 10 16.0934 0 0
4:35 am 04:35 Clear 63 17.1 61 16.1 94 94 SSE 8 13 29.97 1015 10 16.0934 0 0
4:55 am 04:55 Clear 63 17.1 61 16 93 93 SSE 8 13 29.97 1015 10 16.0934 0 0
5:15 am 05:15 Clear 63 17 61 16 94 94 SSE 8 13 29.97 1015 10 16.0934 0 0
5:35 am 05:35 Clear 62 16.9 61 16 94 94 SSE 9 15 29.97 1015 10 16.0934 0 0
5:55 am 05:55 Clear 63 17.1 61 16 93 93 SSE 9 15 29.97 1015 10 16.0934 0 0
6:15 am 06:15 Sunny 63 17 61 16 94 94 SSE 9 15 29.97 1015 10 16.0934 0 0
6:35 am 06:35 Sunny 63 17 61 16 94 94 S 6 9 29.97 1015 10 16.0934 0 0
6:55 am 06:55 Sunny 63 17.2 61 16.1 93 93 S 6 9 29.97 1015 10 16.0934 0 0
7:15 am 07:15 Sunny 63 17.4 61 16.3 93 93 SSE 6 9 29.97 1015 10 16.0934 0 0
7:35 am 07:35 Sunny 64 18 62 16.6 92 92 SSE 8 13 29.97 1015 10 16.0934 0 0
7:55 am 07:55 Sunny 66 18.7 63 17 90 90 S 8 13 29.97 1015 10 16.0934 0 0
8:15 am 08:15 Sunny 67 19.6 63 17.4 87 87 S 7 11 29.97 1015 10 16.0934 0 0
8:35 am 08:35 Sunny 69 20.7 65 18.5 87 87 S 9 15 29.94 1014 10 16.0934 0 0
8:55 am 08:55 Sunny 71 21.8 66 18.9 84 84 S 12 19 29.94 1014 10 16.0934 0 0
9:15 am 09:15 Sunny 73 22.7 66 19.1 80 80 S 10 17 29.94 1014 10 16.0934 0 0
9:35 am 09:35 Sunny 74 23.3 65 18.6 75 75 S 15 24 29.94 1014 10 16.0934 0 0
9:55 am 09:55 Sunny 75 24 66 19 74 74 S 15 24 29.91 1013 10 16.0934 0 0
10:15 am 10:15 Sunny 76 24.5 65 18.6 70 70 S 15 24 29.91 1013 10 16.0934 0 0
10:35 am 10:35 Sunny 77 25 65 18.5 67 67 S 16 26 29.88 1012 10 16.0934 0 0
10:55 am 10:55 Sunny 78 25.6 66 18.8 66 66 SSE 14 22 29.88 1012 10 16.0934 0 0
11:15 am 11:15 Sunny 79 26 66 18.9 65 65 S 13 20 29.88 1012 10 16.0934 0 0
11:35 am 11:35 Sunny 80 26.6 67 19.4 65 65 S 15 24 29.88 1012 10 16.0934 0 0
11:55 am 11:55 Sunny 81 27 68 20.1 66 66 S 15 24 29.85 1011 10 16.0934 0 0
12:15 pm 12:15 Sunny 82 27.5 70 21 68 68 S 13 20 29.85 1011 10 16.0934 0 0
12:35 pm 12:35 Sunny 82 27.7 71 21.5 69 69 SSE 16 26 29.85 1011 10 16.0934 0 0
12:55 pm 12:55 Sunny 83 28.1 71 21.6 68 68 S 16 26 29.85 1011 10 16.0934 0 0
1:15 pm 13:15 Sunny 84 28.7 72 22 67 67 S 14 22 29.85 1011 10 16.0934 0 0
1:35 pm 13:35 Sunny 84 28.7 72 22 67 67 S 14 22 29.83 1010 10 16.0934 0 0
1:55 pm 13:55 Partly Cloudy 84 29.1 73 22.5 68 68 SSE 16 26 29.83 1010 10 16.0934 0 0
2:15 pm 14:15 Mostly Cloudy 85 29.3 73 22.5 67 67 S 16 26 29.83 1010 10 16.0934 0 0
2:35 pm 14:35 Partly Cloudy 85 29.7 73 22.7 66 66 SSE 18 30 29.83 1010 10 16.0934 0 0
2:55 pm 14:55 Partly Cloudy 86 29.8 73 22.5 65 65 SSE 14 22 29.83 1010 10 16.0934 0 0
3:15 pm 15:15 Partly Cloudy 87 30.3 73 22.6 63 63 S 16 26 29.77 1008 10 16.0934 0 0
3:35 pm 15:35 Mostly Cloudy 87 30.6 73 22.6 62 62 SSE 15 24 29.77 1008 10 16.0934 0 0
3:55 pm 15:55 Partly Cloudy 87 30.7 72 22.4 61 61 S 16 26 29.77 1008 10 16.0934 0 0
4:15 pm 16:15 Partly Cloudy 87 30.5 73 22.5 62 62 S 16 26 29.77 1008 10 16.0934 0 0
4:35 pm 16:35 Partly Cloudy 87 30.4 72 22.4 62 62 SSE 16 26 29.74 1007 10 16.0934 0 0
4:55 pm 16:55 Partly Cloudy 87 30.8 73 22.6 62 62 S 14 22 29.74 1007 10 16.0934 0 0
5:15 pm 17:15 Partly Cloudy 87 30.5 73 22.7 63 63 S 13 20 29.74 1007 10 16.0934 0 0
5:35 pm 17:35 Partly Cloudy 87 30.4 73 22.7 63 63 S 16 26 29.74 1007 10 16.0934 0 0
5:55 pm 17:55 Partly Cloudy 87 30.5 74 23.2 65 65 S 15 24 29.74 1007 10 16.0934 0 0
6:15 pm 18:15 Partly Cloudy 86 30.1 73 22.8 65 65 SSE 18 30 29.71 1006 10 16.0934 0 0
6:35 pm 18:35 Sunny 86 29.8 73 22.8 66 66 SSE 17 28 29.71 1006 10 16.0934 0 0
6:55 pm 18:55 Partly Cloudy 86 29.8 73 22.7 66 66 S 14 22 29.71 1006 10 16.0934 0 0
7:15 pm 19:15 Sunny 85 29.5 73 22.8 67 67 S 14 22 29.71 1006 10 16.0934 0 0
7:35 pm 19:35 Sunny 84 29.1 73 22.6 68 68 SSE 10 17 29.77 1008 10 16.0934 0 0
7:55 pm 19:55 Sunny 84 28.7 73 22.5 69 69 SSE 8 13 29.77 1008 10 16.0934 0 0
8:15 pm 20:15 Sunny 83 28.1 73 22.7 73 73 SSE 7 11 29.77 1008 10 16.0934 0 0
8:35 pm 20:35 Sunny 81 27.3 73 22.9 77 77 SE 6 9 29.8 1009 10 16.0934 0 0
8:55 pm 20:55 Sunny 80 26.4 74 23.1 82 82 SE 7 11 29.8 1009 10 16.0934 0 0
9:15 pm 21:15 Clear 79 25.9 73 22.8 83 83 SSE 8 13 29.83 1010 10 16.0934 0 0
9:35 pm 21:35 Clear 78 25.8 73 22.5 82 82 SE 8 13 29.83 1010 10 16.0934 0 0
9:55 pm 21:55 Clear 78 25.8 72 22.1 80 80 SSE 10 17 29.83 1010 10 16.0934 0 0
10:15 pm 22:15 Clear 78 25.7 72 22 80 80 SSE 12 19 29.83 1010 10 16.0934 0 0
10:35 pm 22:35 Clear 78 25.7 72 22 80 80 SSE 13 20 29.83 1010 10 16.0934 0 0
10:55 pm 22:55 Clear 78 25.5 72 22 81 81 SSE 14 22 29.83 1010 10 16.0934 0 0
11:15 pm 23:15 Clear 78 25.5 72 22 81 81 SSE 14 22 29.83 1010 10 16.0934 0 0
11:35 pm 23:35 Clear 78 25.6 72 22 81 81 SSE 17 28 29.83 1010 10 16.0934 0 0
11:55 pm 23:55 Clear 78 25.7 72 22 80 80 SSE 15 24 29.8 1009 10 16.0934 0 0

Powered by AerisWeather